Weather Roundup
Issued by NWS Chicago, IL

Home | Current Version | Previous Version | Text Only | Print | Product List | Glossary On
Versions: 1 2 3 4 5 6 7 8 9 10 11 12 13 14 15 16 17 18 19 20 21 22 23 24 25 26 27 28 29 30 31 32 33 34 35 36 37 38 39 40 41 42 43 44 45 46 47 48 49 50
000
NZUS59 KLOT 230212
HRRLOT

CHICAGO AREA WEATHER ROUNDUP
NATIONAL WEATHER SERVICE CHICAGO/ROMEOVILLE IL
800 PM CST WED FEB 22 2017

NOTE: "FAIR" INDICATES FEW OR NO CLOUDS BELOW 12,000 FEET WITH NO
SIGNIFICANT WEATHER AND/OR OBSTRUCTIONS TO VISIBILITY.

* THESE STATIONS ARE NOT UNDER NWS QUALITY CONTROL. THEY ALSO MAY NOT
  REPORT WEATHER SUCH AS PRECIPITATION OR FOG.

ILZ005-006-012>014-019>023-230300-
NORTHEAST ILLINOIS

CITY           SKY/WX    TMP DP  RH WIND       PRES   REMARKS
OHARE          CLEAR     63  54  72 S14G25    29.61R
MIDWAY         CLEAR     63  53  70 S16G24    29.62R
AURORA         CLEAR     60  53  77 S15       29.62S
LANSING*       CLEAR     58  55  91 S8        29.65R
JOLIET*        PTCLDY    62  56  82 SW8       29.65R
WAUKEGAN       PTCLDY    61  54  77 SW16      29.59R
DUPAGE AIRPORT CLEAR     60  53  77 S13       29.62R
WHEELING       CLEAR     62  54  74 S15       29.61S
KANKAKEE*      CLEAR     58  53  83 S8        29.67R
MORRIS*        PTCLDY    59  53  81 SW10      29.64R
LEWIS AIRPORT* CLEAR     60  57  87 SW16G22   29.64R
NORTHERLY ISL    N/A     63  53  70 SW17        N/A
$$

WIZ051-052-058>065-066-070>072-230300-
SOUTHEAST WISCONSIN

CITY           SKY/WX    TMP DP  RH WIND       PRES   REMARKS
MILWAUKEE      CLEAR     60  50  69 SW12      29.57S
KENOSHA*       CLEAR     61  53  75 SW14      29.58S
RACINE*        CLEAR     60  52  74 SW14      29.58S
WAUKESHA       PTCLDY    55  48  76 S10       29.58S
WEST BEND      CLEAR     59  52  77 SW13      29.54F
$$

INZ001>003-010>013-019-020-230300-
NORTHWEST INDIANA

CITY           SKY/WX    TMP DP  RH WIND       PRES   REMARKS
GARY*          CLEAR     63  54  72 S7        29.64S
MICHIGAN CITY* NOT AVBL
RENSSELAER*    NOT AVBL
VALPARAISO     CLEAR     58  54  86 S12G20    29.66F
$$

LMZ740>746-230300-
SOUTHERN LAKE MICHIGAN

STATION/POSITION TIME  SKY/WX   TEMP WIND        PRES    VSBY
                                AIR  DIR/SP/G
                 (UTC)          (F)  (DEG/KT/KT) (MB)    (MI)
HARRISON CRIB    0140            63  200/ 24/ 26   N/A
BURNHAM HARBOR   0145            63  210/ 17       N/A
CALUMET HARBOR   0148            62  200/ 12/ 17 1003.1R
BURNS HARBOR     0140            60  180/ 15/ 20 1004.1F
MICHIGAN CITY    0140            60  150/ 14/ 17   N/A
$$

ABBREVIATIONS USED IN REMARKS
   TC - TEMPERATURE IN CELSIUS
  WCI - WIND CHILL INDEX
   HX - HEAT INDEX
  VSB - VISIBILITY
$$




USA.gov is the U.S. government's official web portal to all federal, state and local government web resources and services.